Notices

What's New in latest Release from April 7th, 2021:

- Updated Glossary, including Speed of Maximum Gust, and Total Hourly Precipitation

- Updated national and regional climate services offices contacts and prices information

- Addition of station inventory lists for 1981-2010, 1971-2000, and 1961-1990 Normals.

If you haven't already, please take our survey and provide feedback about our website: https://eccc.sondage-survey.ca/f/LanguageSelection.aspx?s=442ca660-fcf1-47c0-95a9-59707d6fd709

Hourly Data Report for December 18, 2019

CARBERRY CS
MANITOBA
Current Station Operator: ECCC - MSC

49°54'20.900" N
99°21'26.800" W
383.50 m
5010547
71170
WZE

Download Data

Hourly Data (December 2019)
Hourly Data Report for December 18, 2019
TIME
LST
Temp Definition
°C
Dew Point Definition
°C
Rel Hum Definition
%
Precip. Amount Definition
mm

Wind Dir Definition
10's deg

Wind Spd Definition
km/h
Visibility Definition
km
Stn Press Definition
kPa
Hmdx Definition


Wind Chill Definition


Weather Definition


00:00 -18.7 -21.3 80 0.0 15 15   97.23   -27 LegendNANA
01:00 -16.6 -19.1 81 0.0 15 13   97.14   -24 LegendNANA
02:00 -14.9 -17.8 78 0.0 15 15   97.00   -23 LegendNANA
03:00 -13.4 -16.8 76 0.0 13 20   96.93   -22 LegendNANA
04:00 -12.8 -16.1 77 0.0 15 19   96.79   -21 LegendNANA
05:00 -12.2 -15.1 79 0.0 15 22   96.61   -21 LegendNANA
06:00 -11.7 -14.5 80 0.0 17 26   96.60   -21 LegendNANA
07:00 -12.2 -14.9 81 0.0 16 25   96.50   -22 LegendNANA
08:00 -13.0 -15.6 81 0.0 16 24   96.42   -22 LegendNANA
09:00 -13.3 -16.1 80 0.0 17 25   96.33   -23 LegendNANA
10:00 -12.8 -16.1 76 0.0 17 25   96.31   -22 LegendNANA
11:00 -11.7 -15.5 73 0.0 18 23   96.30   -21 LegendNANA
12:00 -10.7 -14.5 74 0.0 18 17   96.20   -18 LegendNANA
13:00 -9.2 -13.3 72 0.0 22 11   96.15   -15 LegendNANA
14:00 -6.7 -11.2 71 0.0 25 13   96.11   -12 LegendNANA
15:00 -6.8 -10.7 74 0.0 25 19   96.16   -14 LegendNANA
16:00 -6.5 -10.2 75 0.0 25 19   96.21   -13 LegendNANA
17:00 -6.5 -9.6 78 0.0 26 25   96.28   -14 LegendNANA
18:00 -6.4 -9.7 77 0.0 27 23   96.34   -14 LegendNANA
19:00 -7.5 -10.2 81 0.0 26 18   96.43   -14 LegendNANA
20:00 -9.3 -11.3 86 0.0 28 13   96.52   -15 LegendNANA
21:00 -10.9 -12.9 85 0.0 27 13   96.57   -17 LegendNANA
22:00 -9.3 -12.0 81 0.0 34 8   96.69   -14 LegendNANA
23:00 -12.6 -13.6 92 0.0 3 6   96.78   -17 LegendNANA

Notes on Data Quality.

Legend

  • E = Estimated
  • M = Missing
  • NA = Not Available*
  • [empty] = Indicates an unobserved value
Date modified: